Location: Grand Mazuras
(45.9128°N, 1.7636°E)
Time: 17:19:59
(UTC+00:00)

Cosmos 1943 - Pass Details

Date: 18 April 2021
Orbit: 834 x 849 km, 71.0° (Epoch: 11 May)

Event Time Altitude Azimuth Distance (km) Brightness Sun altitude
Rises 22:41:53 0° 335° (NNW) 3,394 7.5 -30.8°
Reaches altitude 10° 22:44:22 10° 339° (NNW) 2,457 6.5 -30.9°
Enters shadow 22:49:07 56° 20° (NNE) 996 3.7 -31.2°
